EW4993 Weather Reports


Display with metric or nautical units.
time (UTC)temp
F
wind
direction
speed
MPH
gust
MPH
rain 1hr
in
rain 24hr
in
rain mn
in
humidity
%
barometer
mb
20260831114549 76 217 4.0 6.0 0.00 0.00 0.00 31 990.6
20260831113038 76 207 3.0 5.0 0.00 0.00 0.00 34 990.5
20260831111516 76 207 3.0 5.0 0.00 0.00 0.00 35 990.4
20260831110019 76 207 3.0 5.0 0.00 0.00 0.00 38 990.2
20260831104503 77 221 3.0 5.0 0.00 0.00 0.00 38 990.3
20260831103101 77 223 3.0 7.0 0.00 0.00 0.00 40 990.2
20260831101600 77 226 6.0 10.0 0.00 0.00 0.00 40 990.4
20260831100118 77 215 4.0 8.0 0.00 0.00 0.00 44 990.5
20260831094554 76 220 4.0 6.0 0.00 0.00 0.00 47 990.3
20260831093051 77 221 5.0 7.0 0.00 0.00 0.00 50 990.2
20260831091553 77 211 5.0 8.0 0.00 0.00 0.00 53 990.1
20260831090048 77 207 4.0 8.0 0.00 0.00 0.00 56 990.2
20260831084527 77 219 4.0 7.0 0.00 0.00 0.00 59 990.2
20260831083027 77 213 4.0 8.0 0.00 0.00 0.00 62 990.3
20260831081509 78 213 4.0 8.0 0.00 0.00 0.00 64 990.2
20260831080009 78 205 5.0 8.0 0.00 0.00 0.00 65 990.2
20260831074603 78 191 5.0 7.0 0.00 0.00 0.00 67 990.3
20260831073055 79 200 3.0 6.0 0.00 0.00 0.00 67 990.3
20260831071606 79 197 3.0 5.0 0.00 0.00 0.00 68 990.4
20260831070054 80 198 2.0 6.0 0.00 0.00 0.00 68 990.4
20260831064554 80 198 3.0 6.0 0.00 0.00 0.00 68 990.4
20260831063058 81 200 5.0 8.0 0.00 0.00 0.00 68 990.5
20260831061553 81 205 5.0 8.0 0.00 0.00 0.00 68 990.3
20260831060101 82 197 5.0 8.0 0.00 0.00 0.00 67 990.2
20260831054538 83 201 5.0 8.0 0.00 0.00 0.00 67 990.2
20260831053038 83 192 5.0 9.0 0.00 0.00 0.00 66 990.2
20260831051541 83 207 6.0 10.0 0.00 0.00 0.00 66 990.1
20260831050048 84 203 7.0 9.0 0.00 0.00 0.00 65 990.0
20260831044537 84 199 7.0 9.0 0.00 0.00 0.00 64 989.9
20260831043043 85 192 8.0 10.0 0.00 0.00 0.00 63 989.8
20260831041551 85 195 7.0 10.0 0.00 0.00 0.00 63 989.8
20260831040035 86 192 8.0 12.0 0.00 0.00 0.00 61 989.7
20260831034517 86 200 9.0 12.0 0.00 0.00 0.00 61 989.6
20260831033019 87 205 7.0 11.0 0.00 0.00 0.00 60 989.3
20260831031600 87 209 8.0 11.0 0.00 0.00 0.00 59 989.3
20260831030104 88 210 9.0 13.0 0.00 0.00 0.00 57 989.1
20260831024541 88 192 9.0 13.0 0.00 0.00 0.00 55 988.8
20260831023040 89 182 8.0 13.0 0.00 0.00 0.00 50 988.6
20260831021524 89 150 6.0 9.0 0.00 0.00 0.00 49 988.3
20260831020023 90 148 4.0 8.0 0.00 0.00 0.00 48 988.2
20260831014506 90 148 5.0 9.0 0.00 0.00 0.00 46 987.9
20260831013004 91 143 3.0 8.0 0.00 0.00 0.00 42 987.8
20260831011547 92 148 4.0 8.0 0.00 0.00 0.00 41 987.6
20260831010059 93 143 5.0 9.0 0.00 0.00 0.00 41 987.6
20260831004527 94 150 6.0 11.0 0.00 0.00 0.00 39 987.6
20260831003027 95 131 5.0 10.0 0.00 0.00 0.00 38 987.4
20260831001520 96 149 8.0 13.0 0.00 0.00 0.00 38 987.4
20260831000010 96 180 4.0 16.0 0.00 0.00 0.00 36 987.5
20260830234559 96 174 7.0 13.0 0.00 0.00 0.00 36 987.5
20260830233049 97 181 7.0 13.0 0.00 0.00 0.00 35 987.5
20260830231535 96 157 8.0 12.0 0.00 0.00 0.00 37 987.6
20260830230036 96 171 6.0 12.0 0.00 0.00 0.00 35 987.6
20260830224533 97 125 5.0 14.0 0.00 0.00 0.00 36 987.6
20260830223034 97 209 5.0 12.0 0.00 0.00 0.00 37 987.7
20260830221531 97 200 6.0 11.0 0.00 0.00 0.00 37 987.8
20260830220030 96 163 6.0 12.0 0.00 0.00 0.00 38 987.9
20260830214530 97 209 7.0 13.0 0.00 0.00 0.00 37 988.0
20260830213027 97 206 8.0 13.0 0.00 0.00 0.00 39 988.2
20260830211513 96 150 4.0 12.0 0.00 0.00 0.00 40 988.5
20260830210012 97 172 10.0 16.0 0.00 0.00 0.00 41 988.7
20260830204510 96 192 10.0 20.0 0.00 0.00 0.00 40 988.9
20260830203019 96 165 10.0 15.0 0.00 0.00 0.00 43 989.0
20260830201505 96 194 6.0 16.0 0.00 0.00 0.00 42 989.3
20260830200002 95 167 10.0 18.0 0.00 0.00 0.00 45 989.4
20260830194501 95 191 8.0 20.0 0.00 0.00 0.00 46 989.6
20260830193057 95 175 11.0 16.0 0.00 0.00 0.00 43 989.9
20260830191544 94 130 8.0 20.0 0.00 0.00 0.00 45 990.1
20260830190043 94 209 7.0 15.0 0.00 0.00 0.00 47 990.2
20260830184541 94 192 11.0 16.0 0.00 0.00 0.00 47 990.5
20260830183037 93 185 9.0 14.0 0.00 0.00 0.00 49 990.7
20260830181533 92 183 9.0 16.0 0.00 0.00 0.00 51 990.9
20260830180032 92 180 9.0 16.0 0.00 0.00 0.00 53 991.2
20260830174536 91 183 8.0 15.0 0.00 0.00 0.00 55 991.5
20260830173042 90 217 9.0 16.0 0.00 0.00 0.00 57 991.8
20260830171517 90 190 7.0 14.0 0.00 0.00 0.00 58 992.0
20260830170115 89 232 9.0 14.0 0.00 0.00 0.00 58 992.2
20260830164515 89 218 7.0 14.0 0.00 0.00 0.00 59 992.3
20260830163015 88 194 6.0 13.0 0.00 0.00 0.00 62 992.4
20260830161510 87 179 7.0 16.0 0.00 0.00 0.00 63 992.5
20260830160010 87 224 8.0 17.0 0.00 0.00 0.00 63 992.5
20260830154503 86 214 5.0 12.0 0.00 0.00 0.00 64 992.3
20260830153101 85 247 5.0 11.0 0.00 0.00 0.00 65 992.3
20260830151558 84 246 8.0 15.0 0.00 0.00 0.00 66 992.2
20260830150054 83 247 10.0 16.0 0.00 0.00 0.00 67 992.2
20260830144536 82 211 7.0 14.0 0.00 0.00 0.00 66 992.2
20260830143020 81 248 9.0 16.0 0.00 0.00 0.00 64 992.1
20260830141519 80 239 10.0 15.0 0.00 0.00 0.00 60 992.1
20260830140012 79 218 9.0 17.0 0.00 0.00 0.00 56 992.1
20260830134513 78 234 6.0 10.0 0.00 0.00 0.00 52 991.9
20260830133012 77 200 5.0 10.0 0.00 0.00 0.00 46 991.8
20260830131509 76 219 4.0 7.0 0.00 0.00 0.00 40 991.7
20260830130005 74 245 5.0 8.0 0.00 0.00 0.00 38 991.5
20260830124502 74 220 4.0 7.0 0.00 0.00 0.00 38 991.4
20260830123050 73 232 4.0 6.0 0.00 0.00 0.00 39 991.3
20260830121548 73 227 4.0 6.0 0.00 0.00 0.00 42 991.2
20260830120045 73 221 3.0 6.0 0.00 0.00 0.00 44 991.0